DELTA 1 DEB, 21324

Orbit data source: Space-Track

DELTA 1 DEB, 21324 is space debris in SSO originally from a launch on Thu, 12 Jun 1975 UTC launched from the Air Force Western Test Range (AFWTR). Debris objects in space refer to the collection of defunct objects orbiting the Earth. Examples of debris include non-operational satellites, rocket bodies, and fragments generated from explosions, collisions, or faulty payload assembly.

Loading next visibility...
Identifier
21324, 1975-052AS
Orbit
SSO
Country
Flag of USUS
Related business
Manufacturer
Unknown
Mission
Spacecraft
Bus & Motor
Unknown
Mass
Unknown
Launch date (UTC)
1975-06-12 (50 years ago)
Launch vehicle
Unknown
Launch site
Air Force Western Test Range (AFWTR)
Object type
Payload
Rocket body
Debris
Shape & HBR
Unknown shape, 0.2 m
Radar Cross Section
Small (<0.1 m²)

Expand to show TLE details & history
Last TLE update: 16 hours ago

TLE from 16 hours ago
0 DELTA 1 DEB
1 21324U 75052AS  25309.00248839  .00001164  00000-0  27086-2 0  9991
2 21324  99.5616 319.2017 0309924  52.9370 337.6188 13.10413136636651
Epoch: 2025-11-05T00:03Z
TLE epoch observation values (Epoch: 2025-11-05T00:03:34.996Z)
Latitude
28.75708°
Longitude
-91.45185°
Altitude
1,008.247 km
Speed
7.454 km/s
True Right ascension
20h 55m 42s
True Declination
28° 37' 02"
Sunlit
Object was in daylight at epoch
Visualization orbit readout
Latitude
Unknown
Longitude
Unknown
Altitude
Unknown
Speed
Unknown
Apparent Right ascension
Unknown
Apparent Declination
Unknown
Sunlit
N/A
Visualization observer readout
Local Sidereal Time
11:41:21
Azimuth
Unknown
Elevation
Unknown
Doppler factor
Unknown
Orbital elements
Apogee altitude
1,454.356 km
Perigee altitude
983.454 km
Semi-major axis
7,597.042 km
Eccentricity
0.03099
Inclination
99.5616°
RAAN
319.2017°
Arg. of periapsis
52.937°
True anomaly
336.2165°
Mean anomaly
337.6188°
Eccentric anomaly
336.92276°
Mean motion
3.27775 °/min
Orbital period
109.83 mins
BSTAR
0.0027086
Loading maneuver chart data...
Computing Atmospheric mass density...
Loading historical data...
Loading historical data...
Loading historical data...
Loading historical data...
Loading historical data...
Loading historical data...
Loading historical data...

Documentation

Showing up to 5 results
|